sat.trackr.live / text

‹ back to catalog

STARLINK-11078 [DTC]

NORAD 58710 · 2024-002F

PAYLOAD ACTIVE UNKNOWN

§ Identity

Operator
Country
US
Launch date
2024-01-03
Launch site
AFWTR
Launch vehicle
Mass (kg)
RCS (m²)

Purposes: comms

External: N2YO · Heavens-Above · Gunter

§ Orbital elements

Epoch: 2026-09-20T14:33:29.094336Z

Period
91.73 min
Inclination
53.1583°
Eccentricity
0.0000706
Mean motion
15.69754794 rev/d
Perigee alt
359.1 km
Apogee alt
360.1 km
Semi-major
6,737.7 km
B*
-6.6007e-5
RAAN
32.9777°
Arg perigee
107.2703°
Mean anomaly
252.8392°
Rev number
15,705

§ Raw data

STARLINK-11078 [DTC]1 58710U 24002F   26263.60658674 -.00008591  00000+0 -66007-4 0  99972 58710  53.1583  32.9777 0000706 107.2703 252.8392 15.69754794157052

JSON: /api/v1/satellites/58710 · /tle

For live sub-satellite position, see the globe view (requires WebGL).

§ Visibility from observer

Set your observer location to see the next 7 days of passes ≥ 10°. The values pass through the URL so the page stays shareable.

No JS? Fill the form by hand. The geolocation button needs JavaScript.